FW0884 Miller Place NY US current weather conditions

sailwx.info

Wind from 245 at 1 knots gusting 7

Air temperature 28.9° C
Dewpoint 22.1° C

Last reported at 2020-Aug-09 20:05 UTC.
Time now 2020-Aug-09 20:44 UTC

Location: N 40°56' W 072°59'.
View on Google Maps.

See reports from other nearby stations

  
Tides and Currents Weather Stations Pressure Air Temp Water Temp Dewpoint Dewpoint Depression Visibility Wind Speed Wind Dir Waves Ship Positions
date/time (UTC)wind fromknots sea level pressurealtimeterstation pressurevisibilityair tempwater tempwave heightnotes
2020-Aug-09 20:05 245 1 gusting 7 28.9
2020-Aug-09 20:01 169 2 gusting 7 28.9
2020-Aug-09 19:55 232 1 gusting 3 29.4
2020-Aug-09 19:50 236 1 gusting 5 28.9
2020-Aug-09 19:45 215 1 gusting 6 28.9
2020-Aug-09 19:40 221 2 gusting 6 28.9
2020-Aug-09 19:35 208 1 gusting 6 29.4
2020-Aug-09 19:30 209 2 gusting 5 29.4
2020-Aug-09 19:25 187 1 gusting 11 28.9
2020-Aug-09 19:20 184 2 gusting 11 29.4
2020-Aug-09 19:15 198 2 gusting 7 29.4
2020-Aug-09 19:10 230 0 gusting 8 29.4
2020-Aug-09 19:05 193 2 gusting 8 28.9
2020-Aug-09 19:00 131 1 gusting 6 29.4
2020-Aug-09 18:55 173 2 gusting 8 29.4
2020-Aug-09 18:50 208 2 gusting 8 28.9
2020-Aug-09 18:45 196 2 gusting 8 29.4
2020-Aug-09 18:40 243 2 gusting 8 29.4
2020-Aug-09 18:35 142 3 gusting 7 29.4
2020-Aug-09 18:25 167 2 gusting 6 28.9
2020-Aug-09 18:20 150 1 gusting 6 29.4
2020-Aug-09 18:10 197 0 gusting 6 28.9
2020-Aug-09 18:05 207 2 gusting 5 28.9
2020-Aug-09 18:00 208 1 gusting 6 28.3
2020-Aug-09 17:55 232 1 gusting 5 27.8
2020-Aug-09 17:45 113 0 gusting 4 27.8
2020-Aug-09 17:40 209 1 gusting 4 27.8
2020-Aug-09 17:35 206 1 gusting 5 27.8
2020-Aug-09 17:30 194 1 gusting 4 27.8
2020-Aug-09 17:25 177 0 gusting 3 27.8
2020-Aug-09 17:20 205 0 gusting 4 27.8
2020-Aug-09 17:15 182 0 gusting 4 27.8
2020-Aug-09 17:10 238 0 gusting 2 27.8
2020-Aug-09 17:05 288 0 gusting 2 27.8
2020-Aug-09 16:55 289 0 gusting 3 27.2
2020-Aug-09 16:50 300 0 gusting 3 27.2
2020-Aug-09 16:45 282 26.7
2020-Aug-09 16:40 282 27.2
2020-Aug-09 16:35 317 0 gusting 2 27.2
2020-Aug-09 16:30 342 26.7
2020-Aug-09 16:25 342 27.2
2020-Aug-09 16:20 285 1 gusting 6 27.8
2020-Aug-09 16:10 259 0 gusting 2 27.8
2020-Aug-09 16:02 286 0 gusting 2 28.3
2020-Aug-09 15:56 171 27.8
2020-Aug-09 15:50 171 28.3
2020-Aug-09 15:48 161 0 gusting 4 27.8
2020-Aug-09 15:40 171 0 gusting 4 28.3
2020-Aug-09 15:36 285 1 gusting 3 28.3
2020-Aug-09 15:31 227 0 gusting 5 27.8
2020-Aug-09 15:25 257 1 gusting 5 27.8
2020-Aug-09 15:20 289 0 gusting 4 28.3
2020-Aug-09 15:16 292 0 gusting 3 27.8
2020-Aug-09 15:10 227 1 gusting 3 28.3
2020-Aug-09 15:05 061 27.8
2020-Aug-09 15:02 144 0 gusting 4 27.2
2020-Aug-09 14:55 156 0 gusting 4 27.2
2020-Aug-09 14:51 180 0 gusting 6 27.2
2020-Aug-09 14:46 246 1 gusting 6 27.2
2020-Aug-09 14:40 158 0 gusting 5 27.2
2020-Aug-09 14:31 198 0 gusting 4 26.7
2020-Aug-09 14:25 154 0 gusting 4 26.7
2020-Aug-09 14:20 260 0 gusting 4 26.7
2020-Aug-09 14:17 194 1 gusting 3 26.1
2020-Aug-09 14:10 171 0 gusting 4 25.6
2020-Aug-09 14:05 171 25.6
2020-Aug-09 14:01 180 25.6
2020-Aug-09 13:55 188 0 gusting 3 25.0
2020-Aug-09 13:50 239 0 gusting 3 25.0
2020-Aug-09 13:45 265 25.0
2020-Aug-09 13:40 242 0 gusting 2 25.0
2020-Aug-09 13:35 224 0 gusting 4 25.0
2020-Aug-09 13:31 186 0 gusting 4 25.0
2020-Aug-09 13:25 159 0 gusting 2 24.4
2020-Aug-09 13:20 194 0 gusting 3 24.4
2020-Aug-09 13:15 242 0 gusting 3 23.9
2020-Aug-09 13:10 207 0 gusting 2 23.3
2020-Aug-09 13:05 188 0 gusting 2 23.3
2020-Aug-09 13:00 180 0 gusting 2 23.3
2020-Aug-09 12:55 236 22.8
2020-Aug-09 12:50 236 22.8
2020-Aug-09 12:45 225 0 gusting 2 22.8
2020-Aug-09 12:40 197 22.8
2020-Aug-09 12:35 221 22.2
2020-Aug-09 12:30 186 22.2
2020-Aug-09 12:25 221 21.7
2020-Aug-09 12:20 221 21.7
2020-Aug-09 12:10 214 0 gusting 2 21.7
2020-Aug-09 12:05 196 21.1
2020-Aug-09 11:55 084 21.1
2020-Aug-09 11:45 188 21.1
2020-Aug-09 11:35 188 21.1
2020-Aug-09 11:25 188 20.6
2020-Aug-09 11:20 188 20.6
2020-Aug-09 11:10 188 20.6
2020-Aug-09 11:05 188 20.6
2020-Aug-09 10:55 188 20.6
2020-Aug-09 10:50 188 20.6
2020-Aug-09 10:45 188 20.0
2020-Aug-09 10:40 188 20.0
2020-Aug-09 10:35 188 19.4
2020-Aug-09 10:30 188 19.4
2020-Aug-09 10:25 188 19.4
2020-Aug-09 10:16 188 19.4
2020-Aug-09 10:11 188 19.4
2020-Aug-09 10:05 188 18.9
2020-Aug-09 10:02 188 18.9
2020-Aug-09 09:56 188 18.9
2020-Aug-09 09:49 188 18.9
2020-Aug-09 09:40 188 18.9
2020-Aug-09 09:35 188 18.9
2020-Aug-09 09:31 188 18.9
2020-Aug-09 09:26 188 18.9
2020-Aug-09 09:21 188 18.9
2020-Aug-09 09:16 188 18.9
2020-Aug-09 09:10 188 18.9
2020-Aug-09 09:06 188 18.9
2020-Aug-09 09:02 188 18.9
2020-Aug-09 08:55 188 18.9
2020-Aug-09 08:51 188 19.4
2020-Aug-09 08:48 188 19.4
2020-Aug-09 08:40 188 19.4
2020-Aug-09 08:35 188 19.4
2020-Aug-09 08:31 188 19.4
2020-Aug-09 08:25 188 19.4
2020-Aug-09 08:20 188 19.4
2020-Aug-09 08:16 188 19.4
2020-Aug-09 08:10 188 19.4
2020-Aug-09 08:06 188 19.4
2020-Aug-09 08:01 188 19.4
2020-Aug-09 07:55 188 19.4
2020-Aug-09 07:51 188 19.4
2020-Aug-09 07:47 188 19.4
2020-Aug-09 07:40 188 19.4
2020-Aug-09 07:35 188 19.4
2020-Aug-09 07:32 188 19.4
2020-Aug-09 07:25 188 19.4
2020-Aug-09 07:21 188 19.4
2020-Aug-09 07:17 188 19.4
2020-Aug-09 07:10 188 19.4
2020-Aug-09 07:05 188 19.4
2020-Aug-09 07:01 188 19.4
2020-Aug-09 06:55 188 19.4
2020-Aug-09 06:50 188 19.4
2020-Aug-09 06:46 188 19.4
2020-Aug-09 06:40 188 19.4
2020-Aug-09 06:35 188 19.4
2020-Aug-09 06:31 188 19.4
2020-Aug-09 06:25 188 19.4
2020-Aug-09 06:20 188 19.4
2020-Aug-09 06:16 188 19.4
2020-Aug-09 06:10 188 19.4
2020-Aug-09 06:05 188 19.4
2020-Aug-09 06:01 188 19.4
2020-Aug-09 05:55 188 19.4
2020-Aug-09 05:50 188 19.4
2020-Aug-09 05:46 188 19.4
2020-Aug-09 05:35 188 19.4
2020-Aug-09 05:31 188 19.4
2020-Aug-09 05:25 188 19.4
2020-Aug-09 05:20 188 19.4
2020-Aug-09 05:16 188 19.4
2020-Aug-09 05:11 188 20.0
2020-Aug-09 05:05 188 20.0
2020-Aug-09 05:02 188 20.0
2020-Aug-09 04:56 188 20.0
2020-Aug-09 04:50 188 20.0
2020-Aug-09 04:47 188 20.0
2020-Aug-09 04:40 188 20.0
2020-Aug-09 04:35 188 20.0
2020-Aug-09 04:31 188 20.0
2020-Aug-09 04:25 188 20.0
2020-Aug-09 04:20 188 20.0
2020-Aug-09 04:16 188 20.0
2020-Aug-09 04:10 188 20.6
2020-Aug-09 04:05 188 20.6
2020-Aug-09 04:01 188 20.6
2020-Aug-09 03:55 188 20.6
2020-Aug-09 03:50 188 20.6
2020-Aug-09 03:46 188 20.6
2020-Aug-09 03:40 188 20.6
2020-Aug-09 03:35 188 20.6
2020-Aug-09 03:31 188 20.6
2020-Aug-09 03:25 188 20.6
2020-Aug-09 03:20 188 20.6
2020-Aug-09 03:16 188 21.1
2020-Aug-09 03:10 188 21.1
2020-Aug-09 03:05 188 21.1
2020-Aug-09 03:01 188 21.1
2020-Aug-09 02:55 188 21.1
2020-Aug-09 02:51 188 21.1
2020-Aug-09 02:45 188 21.1
2020-Aug-09 02:40 188 21.1
2020-Aug-09 02:35 188 21.1
2020-Aug-09 02:31 188 21.1
2020-Aug-09 02:25 188 21.1
2020-Aug-09 02:20 188 21.1
2020-Aug-09 02:15 188 21.1
2020-Aug-09 02:10 188 21.1
2020-Aug-09 02:05 188 21.1
2020-Aug-09 02:01 188 21.1
2020-Aug-09 01:55 188 21.1
2020-Aug-09 01:50 188 21.1
2020-Aug-09 01:46 188 21.7
2020-Aug-09 01:40 188 21.7
2020-Aug-09 01:35 214 21.7
2020-Aug-09 01:30 229 21.7
2020-Aug-09 01:25 229 0 gusting 1 21.7
2020-Aug-09 01:20 230 21.7
2020-Aug-09 01:16 162 0 gusting 2 21.7
2020-Aug-09 01:10 211 21.7
2020-Aug-09 01:05 211 21.7
2020-Aug-09 01:00 198 21.7
2020-Aug-09 00:56 198 0 gusting 2 21.7
2020-Aug-09 00:46 163 0 gusting 2 22.2
2020-Aug-09 00:40 166 0 gusting 2 22.2
2020-Aug-09 00:35 179 0 gusting 2 22.2
2020-Aug-09 00:30 229 0 gusting 2 22.2
2020-Aug-09 00:25 200 0 gusting 2 22.2
2020-Aug-09 00:20 180 0 gusting 2 22.2
2020-Aug-09 00:15 180 0 gusting 2 22.8
2020-Aug-09 00:10 190 0 gusting 2 22.8
2020-Aug-09 00:05 163 0 gusting 2 22.8
2020-Aug-09 00:01 171 22.8
2020-Aug-08 23:55 171 0 gusting 4 22.8
2020-Aug-08 23:50 207 1 gusting 4 23.3
2020-Aug-08 23:45 164 2 gusting 5 23.3
2020-Aug-08 23:40 171 0 gusting 4 23.3
2020-Aug-08 23:35 173 1 gusting 4 23.3
2020-Aug-08 23:31 148 0 gusting 3 23.3
2020-Aug-08 23:25 186 1 gusting 2 23.3
2020-Aug-08 23:20 170 0 gusting 3 23.9
2020-Aug-08 23:15 182 0 gusting 3 23.9
2020-Aug-08 23:10 166 0 gusting 3 23.9
2020-Aug-08 23:05 160 0 gusting 3 23.9
2020-Aug-08 23:01 124 23.9
2020-Aug-08 22:55 124 0 gusting 5 23.9
2020-Aug-08 22:50 132 0 gusting 5 23.9
2020-Aug-08 22:45 150 1 gusting 5 23.9
2020-Aug-08 22:40 138 1 gusting 5 23.9
2020-Aug-08 22:35 190 1 gusting 6 24.4
2020-Aug-08 22:30 183 2 gusting 6 24.4
2020-Aug-08 22:25 115 0 gusting 6 24.4
2020-Aug-08 22:20 273 1 gusting 4 24.4
2020-Aug-08 22:16 147 1 gusting 6 24.4
2020-Aug-08 22:10 213 2 gusting 6 24.4
2020-Aug-08 22:05 138 1 gusting 5 24.4
2020-Aug-08 22:01 154 1 gusting 5 25.0
2020-Aug-08 21:55 189 1 gusting 6 25.0
2020-Aug-08 21:50 221 2 gusting 6 25.0
2020-Aug-08 21:45 101 2 gusting 6 25.0
2020-Aug-08 21:40 143 1 gusting 4 25.6
2020-Aug-08 21:35 171 1 gusting 5 25.6
2020-Aug-08 21:30 220 0 gusting 5 25.6
2020-Aug-08 21:25 144 1 gusting 6 25.6
2020-Aug-08 21:20 185 1 gusting 6 25.0
2020-Aug-08 21:16 241 0 gusting 6 25.6
2020-Aug-08 21:10 262 1 gusting 6 25.6
2020-Aug-08 21:05 151 0 gusting 5 25.6
2020-Aug-08 21:00 173 0 gusting 4 25.6
2020-Aug-08 20:55 174 1 gusting 4 25.6
2020-Aug-08 20:50 160 0 gusting 6 25.6
2020-Aug-08 20:45 155 1 gusting 6 25.6
2020-Aug-08 20:40 159 1 gusting 5 25.6
2020-Aug-08 20:35 140 0 gusting 6 25.6
2020-Aug-08 20:31 132 1 gusting 6 26.1
2020-Aug-08 20:25 215 26.1
2020-Aug-08 20:20 148 1 gusting 5 26.1
2020-Aug-08 20:15 221 1 gusting 6 26.1
2020-Aug-08 20:10 233 0 gusting 6 26.7
2020-Aug-08 20:05 169 0 gusting 3 27.2
2020-Aug-08 19:55 209 0 gusting 6 27.2
2020-Aug-08 19:50 215 0 gusting 3 27.2
2020-Aug-08 19:45 128 0 gusting 5 27.2
2020-Aug-08 19:40 236 0 gusting 5 27.2
2020-Aug-08 19:35 212 1 gusting 5 26.7
2020-Aug-08 19:25 132 0 gusting 3 25.6
2020-Aug-08 19:15 193 26.1
2020-Aug-08 19:10 193 26.1
2020-Aug-08 19:05 092 1 gusting 3 25.6
2020-Aug-08 18:55 191 1 gusting 3 26.1
2020-Aug-08 18:50 211 26.7
2020-Aug-08 18:40 195 26.7
2020-Aug-08 18:35 159 0 gusting 2 26.7
2020-Aug-08 18:25 049 25.6
2020-Aug-08 18:20 049 25.6
2020-Aug-08 18:10 009 0 gusting 3 26.1
2020-Aug-08 18:05 067 0 gusting 2 26.7
2020-Aug-08 17:55 360 0 gusting 2 26.1
2020-Aug-08 17:50 220 27.2
2020-Aug-08 17:45 220 0 gusting 2 26.7
2020-Aug-08 17:40 360 26.1
2020-Aug-08 17:35 029 26.1
2020-Aug-08 17:25 289 0 gusting 3 26.7
2020-Aug-08 17:20 019 26.7
2020-Aug-08 17:10 025 1 gusting 3 26.1
2020-Aug-08 17:05 340 1 gusting 4 26.1
2020-Aug-08 16:55 355 0 gusting 6 26.1
2020-Aug-08 16:50 005 1 gusting 6 25.6
2020-Aug-08 16:45 281 0 gusting 5 26.1
2020-Aug-08 16:36 009 0 gusting 3 25.6
2020-Aug-08 16:31 011 1 gusting 4 25.0
2020-Aug-08 16:25 360 0 gusting 4 25.0
2020-Aug-08 16:21 325 0 gusting 3 25.6
2020-Aug-08 16:16 005 25.0
2020-Aug-08 16:11 034 2 gusting 6 25.0
2020-Aug-08 16:05 360 1 gusting 4 25.0
2020-Aug-08 15:55 331 1 gusting 4 24.4
2020-Aug-08 15:50 325 0 gusting 5 24.4
2020-Aug-08 15:47 316 1 gusting 5 24.4
2020-Aug-08 15:41 360 1 gusting 5 23.9
2020-Aug-08 15:35 015 0 gusting 5 23.9
2020-Aug-08 15:31 059 1 gusting 5 23.3
2020-Aug-08 15:26 042 1 gusting 5 23.3
2020-Aug-08 15:20 057 1 gusting 5 23.3
2020-Aug-08 15:16 332 1 gusting 4 23.3
2020-Aug-08 15:10 024 0 gusting 6 22.8
2020-Aug-08 15:05 320 1 gusting 6 22.8
2020-Aug-08 15:01 347 1 gusting 3 22.8
2020-Aug-08 14:55 080 1 gusting 3 22.2
2020-Aug-08 14:50 005 0 gusting 3 22.8
2020-Aug-08 14:46 049 0 gusting 3 22.8
2020-Aug-08 14:40 010 0 gusting 3 22.8
2020-Aug-08 14:35 038 0 gusting 6 22.8
2020-Aug-08 14:30 051 1 gusting 6 22.8
2020-Aug-08 14:25 005 0 gusting 4 22.8
2020-Aug-08 14:20 355 1 gusting 4 22.8
2020-Aug-08 14:16 015 0 gusting 3 22.8
2020-Aug-08 14:10 020 1 gusting 3 22.8
2020-Aug-08 14:05 009 0 gusting 3 22.8
2020-Aug-08 14:01 005 22.8
2020-Aug-08 13:55 090 0 gusting 3 22.2
2020-Aug-08 13:50 355 0 gusting 3 22.8
2020-Aug-08 13:45 044 22.8
2020-Aug-08 13:40 065 0 gusting 5 22.8
2020-Aug-08 13:35 345 1 gusting 5 22.2
2020-Aug-08 13:31 061 0 gusting 4 22.8
2020-Aug-08 13:25 069 0 gusting 4 22.8
2020-Aug-08 13:20 060 0 gusting 4 22.2
2020-Aug-08 13:15 331 1 gusting 4 22.2
2020-Aug-08 13:10 015 22.2
2020-Aug-08 13:05 360 0 gusting 4 22.2
2020-Aug-08 13:00 009 22.2
2020-Aug-08 12:55 005 0 gusting 3 22.2
2020-Aug-08 12:50 026 22.2
2020-Aug-08 12:45 093 22.2
2020-Aug-08 12:40 046 21.7
2020-Aug-08 12:30 022 0 gusting 5 22.2
2020-Aug-08 12:25 350 0 gusting 4 22.2
2020-Aug-08 12:15 054 22.2
2020-Aug-08 12:10 054 21.7
2020-Aug-08 12:05 054 21.7
2020-Aug-08 12:00 054 21.7
2020-Aug-08 11:55 054 21.7
2020-Aug-08 11:50 055 21.7
2020-Aug-08 11:45 054 21.7
2020-Aug-08 11:40 054 21.7
2020-Aug-08 11:35 054 21.7
2020-Aug-08 11:30 054 21.7
2020-Aug-08 11:25 054 21.7
2020-Aug-08 11:20 054 21.7
2020-Aug-08 11:15 054 21.1
2020-Aug-08 11:10 074 21.7
2020-Aug-08 11:05 125 21.7
2020-Aug-08 10:55 115 21.1
2020-Aug-08 10:50 115 21.1
2020-Aug-08 10:47 115 21.1
2020-Aug-08 10:41 132 21.1
2020-Aug-08 10:35 136 21.1
2020-Aug-08 10:31 097 21.1
2020-Aug-08 10:25 097 21.1
2020-Aug-08 10:21 097 21.1
2020-Aug-08 10:16 097 21.1
2020-Aug-08 10:11 097 21.1
2020-Aug-08 10:05 097 21.1
2020-Aug-08 10:02 097 0 gusting 2 21.1
2020-Aug-08 09:55 097 0 gusting 2 21.1
2020-Aug-08 09:50 097 21.1
2020-Aug-08 09:46 097 21.1
2020-Aug-08 09:41 092 21.1
2020-Aug-08 09:36 092 0 gusting 2 21.1
2020-Aug-08 09:31 119 21.1
2020-Aug-08 09:26 119 21.1
2020-Aug-08 09:21 150 21.1
2020-Aug-08 09:16 140 21.1
2020-Aug-08 09:10 140 21.1
2020-Aug-08 09:05 140 0 gusting 3 21.1
2020-Aug-08 09:01 084 0 gusting 2 21.1
2020-Aug-08 08:55 083 0 gusting 2 21.1
2020-Aug-08 08:50 078 21.1
2020-Aug-08 08:47 078 21.1
2020-Aug-08 08:40 078 21.1
2020-Aug-08 08:35 078 21.1
2020-Aug-08 08:25 078 21.1
2020-Aug-08 08:20 009 21.1
2020-Aug-08 08:16 009 21.1
2020-Aug-08 08:11 009 21.1
2020-Aug-08 08:05 009 21.1
2020-Aug-08 08:01 009 21.1
2020-Aug-08 07:55 009 21.1
2020-Aug-08 07:51 009 21.1
2020-Aug-08 07:46 009 21.1
2020-Aug-08 07:40 009 21.1
2020-Aug-08 07:35 009 21.1
2020-Aug-08 07:31 009 21.1
2020-Aug-08 07:25 009 21.1
2020-Aug-08 07:20 009 21.1
2020-Aug-08 07:16 009 21.1
2020-Aug-08 07:10 009 21.1
2020-Aug-08 07:05 009 21.1
2020-Aug-08 07:00 009 21.1
2020-Aug-08 06:55 009 21.1
2020-Aug-08 06:50 009 20.6
2020-Aug-08 06:46 009 20.6
2020-Aug-08 06:40 009 21.1
2020-Aug-08 06:35 009 21.1
2020-Aug-08 06:31 009 21.1
2020-Aug-08 06:25 009 21.1
2020-Aug-08 06:21 009 21.1
2020-Aug-08 06:15 009 20.6
2020-Aug-08 06:10 042 20.6
2020-Aug-08 06:05 042 0 gusting 2 20.6
2020-Aug-08 06:01 111 20.6
2020-Aug-08 05:55 111 20.6
2020-Aug-08 05:50 111 20.6
2020-Aug-08 05:47 111 20.6
2020-Aug-08 05:40 111 20.6
2020-Aug-08 05:35 111 20.6
2020-Aug-08 05:30 111 20.6
2020-Aug-08 05:25 111 20.6
2020-Aug-08 05:20 111 20.6
2020-Aug-08 05:15 111 20.6
2020-Aug-08 05:10 103 0 gusting 1 20.6
2020-Aug-08 05:06 103 0 gusting 1 20.0
2020-Aug-08 05:01 103 20.0
2020-Aug-08 04:55 103 20.0
2020-Aug-08 04:50 103 20.0
2020-Aug-08 04:45 103 20.0
2020-Aug-08 04:40 103 20.0
2020-Aug-08 04:35 103 20.6
2020-Aug-08 04:30 103 20.6
2020-Aug-08 04:25 103 20.6
2020-Aug-08 04:20 103 20.6
2020-Aug-08 04:16 103 0 gusting 2 20.6
2020-Aug-08 04:10 102 20.6
2020-Aug-08 04:05 102 20.6
2020-Aug-08 04:00 102 21.1
2020-Aug-08 03:55 102 21.1
2020-Aug-08 03:50 102 21.1
2020-Aug-08 03:45 132 21.1
2020-Aug-08 03:40 132 0 gusting 2 21.1
2020-Aug-08 03:35 128 0 gusting 2 21.1
2020-Aug-08 03:31 115 0 gusting 2 21.1
2020-Aug-08 03:25 092 0 gusting 2 21.1
2020-Aug-08 03:20 055 21.1
2020-Aug-08 03:15 056 0 gusting 2 21.1
2020-Aug-08 03:10 063 0 gusting 2 21.1
2020-Aug-08 03:05 177 21.1
2020-Aug-08 03:00 177 21.1
2020-Aug-08 02:55 177 21.1
2020-Aug-08 02:50 177 21.1
2020-Aug-08 02:45 115 1 gusting 3 21.1
2020-Aug-08 02:40 022 21.1
2020-Aug-08 02:35 305 0 gusting 2 21.1
2020-Aug-08 02:30 034 21.1
2020-Aug-08 02:25 034 20.6
2020-Aug-08 02:20 120 21.1
2020-Aug-08 02:15 120 21.1
2020-Aug-08 02:10 120 21.1
2020-Aug-08 02:05 120 21.1
2020-Aug-08 02:00 120 21.1
2020-Aug-08 01:55 120 21.1
2020-Aug-08 01:50 120 21.1
2020-Aug-08 01:45 120 21.1
2020-Aug-08 01:40 120 21.1
2020-Aug-08 01:35 120 21.1
2020-Aug-08 01:30 120 21.1
2020-Aug-08 01:25 120 21.1
2020-Aug-08 01:20 120 21.1
2020-Aug-08 01:15 120 21.1
2020-Aug-08 01:10 120 21.1
2020-Aug-08 01:05 120 21.1
2020-Aug-08 01:00 120 21.1
2020-Aug-08 00:55 120 21.7
2020-Aug-08 00:50 120 21.7
2020-Aug-08 00:45 120 21.7
2020-Aug-08 00:40 120 21.7
2020-Aug-08 00:30 120 21.7
2020-Aug-08 00:25 120 21.7
2020-Aug-08 00:20 120 21.7
2020-Aug-08 00:10 133 21.7
2020-Aug-08 00:05 133 21.7
2020-Aug-07 23:55 133 22.2
2020-Aug-07 23:50 133 0 gusting 2 22.2
2020-Aug-07 23:40 058 22.2
2020-Aug-07 23:35 058 0 gusting 2 22.2
2020-Aug-07 23:30 058 22.2
2020-Aug-07 23:25 058 0 gusting 1 22.8
2020-Aug-07 23:15 068 0 gusting 2 22.8
2020-Aug-07 23:10 068 22.8
2020-Aug-07 23:01 066 22.8
2020-Aug-07 22:55 066 22.8
2020-Aug-07 22:50 066 0 gusting 1 22.8
2020-Aug-07 22:45 032 22.8
2020-Aug-07 22:40 043 22.8
2020-Aug-07 22:35 047 22.8
2020-Aug-07 22:30 360 1 gusting 4 22.8
2020-Aug-07 22:20 069 23.3
2020-Aug-07 22:10 064 1 gusting 5 23.3
2020-Aug-07 22:00 158 1 gusting 5 23.9
2020-Aug-07 21:55 136 1 gusting 5 23.9
2020-Aug-07 21:50 019 0 gusting 6 23.9
2020-Aug-07 21:40 016 1 gusting 5 23.9
2020-Aug-07 21:35 051 1 gusting 5 24.4
2020-Aug-07 21:25 005 1 gusting 5 24.4
2020-Aug-07 21:15 325 1 gusting 5 23.9
2020-Aug-07 21:10 103 1 gusting 5 23.9
2020-Aug-07 21:05 005 0 gusting 5 23.9
2020-Aug-07 20:55 064 0 gusting 5 23.9
2020-Aug-07 20:50 005 0 gusting 5 23.9
2020-Aug-07 20:40 332 0 gusting 5 23.9
2020-Aug-07 20:35 017 2 gusting 5 23.9
2020-Aug-07 20:30 348 0 gusting 4 24.4
2020-Aug-07 20:25 076 0 gusting 6 24.4
2020-Aug-07 20:20 344 0 gusting 5 24.4
2020-Aug-07 20:10 032 0 gusting 4 24.4
2020-Aug-07 20:05 016 0 gusting 4 24.4